Wangaratta Airport

Jump to: basic info | weather | frequencies | runways | comments

Related pages: nearby airports | nearby navaids | notams | map

Basic information (top)

Codes: WGT YWGT
Location: lon -36.415798, lat 146.307007, elev 504 ft / 154 m msl
Status: medium_airport
Scheduled airline service: no
Links: Wikipedia Mobile

Weather (top)

Current conditions (rec'd 2014/09/02 11:00Z):

YWGT 021100Z AUTO 22008KT //// // ////// 08/03 Q1020

Airport forecast (rec'd 2014/08/31 20:00Z):

TAF YWGT 311857Z 3120/0108 VRB03KT CAVOK 
     FM312300 34012KT 9999 -RA SCT070 SCT100 
      BECMG 0104/0106 27008KT 9999 -SHRA SCT020 BKN050 
      TEMPO 0104/0108 5000 SHRA BKN015 PROB30 3120/3123 0500 FG

Frequencies (top)

Verify before use: may be inaccurate or out of date.

CTAF: 119.1 MHz (CTAF)
FSS: 125.2 MHz (MELBOURNE CNTR)

Runways (top)

09/27: 1,739 x 60 ft (530 x 18 m) — grass — not lighted

18/36: 5,381 x 98 ft (1,640 x 30 m) — paved — lighted

Latest comments (top)

why: Why can't I contact the wgt? When are ... [read]

WGT: A real shame that the Airworld museum closed down. [read]

More... (top)

See also NOTAMs and nearby airports and navaids, or visit the Wangaratta Airport page at the main OurAirports website..